Date,TemperatureHighF,TemperatureAvgF,TemperatureLowF,DewpointHighF,DewpointAvgF,DewpointLowF,HumidityHigh,HumidityAvg,HumidityLow,PressureMaxIn,PressureMinIn,WindSpeedMaxMPH,WindSpeedAvgMPH,GustSpeedMaxMPH,PrecipitationSumIn
2013-3-1,62,47,31,20,14,5,40,27,17,30.40,30.20,23,7,23,0.00
2013-3-2,67,48,27,24,20,17,67,37,16,30.41,30.13,13,2,13,0.00
2013-3-3,70,50,28,22,14,-11,61,30,4,30.14,29.81,21,4,21,0.00
2013-3-4,65,54,43,22,19,13,40,26,14,30.03,29.68,32,7,32,0.00
2013-3-5,63,46,30,22,17,4,67,35,10,30.28,30.03,14,3,14,0.00
2013-3-6,68,53,41,26,21,13,43,30,17,30.17,29.84,19,4,19,0.00
2013-3-7,72,54,32,21,17,12,55,28,11,30.02,29.79,18,4,18,0.00
2013-3-8,64,47,36,43,26,13,86,48,19,29.88,29.65,36,6,36,0.12
2013-3-9,49,40,33,34,24,16,75,55,30,30.03,29.76,26,6,26,0.01
2013-3-10,54,40,27,29,23,13,89,55,23,30.21,30.02,21,4,21,0.00
2013-3-11,65,44,25,20,17,4,71,41,9,30.26,30.00,18,3,21,0.00
2013-3-12,65,50,33,23,20,18,60,33,17,30.17,28.05,8,2,13,0.00
2013-3-13,73,55,32,26,22,16,67,32,13,30.27,30.07,14,3,14,0.00
2013-3-14,76,56,34,24,17,9,56,26,8,30.25,30.03,13,2,13,0.00
2013-3-15,81,57,37,20,14,2,43,23,5,30.08,29.80,14,2,14,0.00
2013-3-16,74,58,38,34,21,15,46,26,12,29.83,29.62,30,5,30,0.00
2013-3-17,71,55,38,38,19,-25,73,35,2,29.78,29.59,34,7,34,0.00
2013-3-18,70,52,34,11,5,-5,37,17,5,29.96,29.78,24,4,24,0.00
2013-3-19,65,49,38,16,10,5,36,21,10,30.16,29.94,22,3,22,0.00
2013-3-20,65,49,29,26,17,13,54,31,16,30.26,29.83,19,4,19,0.00
2013-3-21,73,61,49,32,14,-13,42,20,3,29.83,29.49,40,9,40,0.00
2013-3-22,68,52,32,27,11,2,39,22,8,29.76,29.55,32,6,32,0.00
2013-3-23,52,42,30,27,2,-20,53,23,6,30.11,29.65,44,11,44,0.00
2013-3-24,55,38,21,-1,-8,-14,30,15,7,30.24,29.97,29,5,29,0.00
2013-3-25,58,46,25,11,7,-2,47,21,13,30.28,30.09,22,4,22,0.00
2013-3-26,67,49,28,12,9,6,40,21,10,30.24,29.92,26,7,26,0.00
2013-3-27,74,58,39,16,10,4,36,17,7,30.02,29.83,20,4,20,0.00
2013-3-28,74,61,43,22,14,6,33,17,8,30.00,29.84,23,4,23,0.00
2013-3-29,76,59,42,23,18,11,39,22,9,30.05,29.87,21,3,21,0.00
2013-3-30,75,58,36,26,19,14,44,24,10,30.05,29.82,25,4,25,0.00
2013-3-31,75,61,46,31,26,24,46,29,16,29.96,29.76,15,3,15,0.00